{"data":{"norad_id":55615,"epoch":"2026-09-20T06:48:23.120352Z","epoch_age_seconds":119087,"freshness":"FRESH","line1":"1 55615U 23020AY  26263.28360093 -.00001712  00000+0 -52691-4 0  9998","line2":"2 55615  43.0034 334.9523 0001257 255.7402 104.3310 15.27578744198805","mean_motion":15.27578744,"eccentricity":0.0001257,"inclination_deg":43.0034,"raan_deg":334.9523,"arg_perigee_deg":255.7402,"mean_anomaly_deg":104.331,"bstar":-5.2691e-5,"rev_number":19880,"period_min":94.2668262213,"perigee_km":482.19040539305,"apogee_km":483.91530852309,"semimajor_km":6861.1898569581,"source":"CELESTRAK","updated_at":"2026-09-21T09:00:33.275493Z"}}